Precipitable_Water
2.17 2.08 2.03 1.86 1.27 1.24 0.99 1.13 1.42 1.35 1.34 1.63 1.52 1.39 1.31 1.39 1.24 1.04 1.85 1.92 1.93 1.88 1.82 1.76 1.73 1.60 1.53 1.54 1.53 1.60 1.63 1.58 1.67 1.81 1.85 1.82 1.77 1.78 1.84 1.78 1.84 1.85 1.90 1.98 1.83 1.70 1.61 1.76 1.84
2.16 2.07 2.01 1.71 1.19 1.02 1.00 1.29 1.28 1.43 1.51 1.69 1.54 1.56 1.40 1.29 1.63 1.65 1.67 1.89 1.84 1.74 1.76 1.70 1.71 1.49 1.55 1.53 1.52 1.56 1.61 1.76 1.86 1.88 1.84 1.85 1.81 1.76 1.81 1.86 1.92 1.89 1.83 1.79 1.55 1.61 1.73 1.77 1.83
2.03 2.11 1.73 1.49 1.25 1.03 1.05 1.31 1.48 1.59 1.69 1.59 1.49 1.63 1.55 1.47 1.70 1.69 1.87 1.86 1.75 1.68 1.71 1.66 1.63 1.54 1.59 1.43 1.52 1.62 1.64 1.75 1.77 1.83 1.86 1.84 1.86 1.86 1.89 1.87 1.76 1.65 1.58 1.71 1.53 1.68 1.75 1.82 1.98
1.85 1.89 1.82 1.38 1.13 1.23 1.30 1.45 1.56 1.58 1.72 1.74 1.64 1.38 1.69 1.87 1.72 1.82 1.91 1.84 1.63 1.60 1.61 1.63 1.52 1.55 1.46 1.52 1.56 1.51 1.59 1.66 1.71 1.78 1.81 1.85 1.80 1.80 1.78 1.65 1.55 1.50 1.65 1.57 1.60 1.79 1.84 1.90 1.91
1.88 1.72 1.30 1.17 1.17 1.33 1.47 1.57 1.62 1.55 1.60 1.65 1.64 1.39 1.51 1.79 1.88 1.90 1.84 1.74 1.53 1.51 1.57 1.59 1.50 1.51 1.47 1.58 1.51 1.60 1.62 1.76 1.79 1.83 1.78 1.76 1.77 1.69 1.62 1.54 1.46 1.45 1.51 1.64 1.77 1.80 1.92 2.02 1.90
1.41 1.56 1.07 0.95 1.11 1.31 1.49 1.60 1.60 1.62 1.63 1.60 1.52 1.46 1.49 1.84 1.81 1.82 1.79 1.63 1.56 1.46 1.52 1.61 1.46 1.52 1.52 1.56 1.56 1.70 1.74 1.63 1.73 1.75 1.71 1.69 1.62 1.62 1.53 1.41 1.43 1.40 1.47 1.57 1.74 1.82 1.87 2.03 1.86
1.24 1.20 0.99 1.00 1.06 1.23 1.43 1.64 1.57 1.59 1.53 1.48 1.62 1.32 1.52 1.64 1.80 1.80 1.71 1.64 1.56 1.48 1.49 1.54 1.36 1.54 1.58 1.69 1.58 1.70 1.72 1.69 1.70 1.71 1.67 1.63 1.59 1.51 1.41 1.33 1.46 1.37 1.46 1.53 1.60 1.79 1.77 1.90 1.85
1.34 1.19 1.00 1.04 1.04 1.15 1.44 1.56 1.74 1.58 1.48 1.71 1.62 1.21 1.21 1.58 1.78 1.73 1.65 1.58 1.50 1.44 1.50 1.41 1.41 1.57 1.68 1.66 1.68 1.63 1.73 1.76 1.78 1.75 1.60 1.55 1.61 1.50 1.44 1.47 1.45 1.46 1.52 1.57 1.66 1.73 1.74 1.67 1.75
1.44 1.07 0.95 1.00 1.06 1.18 1.46 1.45 1.63 1.77 1.56 1.55 1.53 1.37 1.49 1.68 1.72 1.58 1.47 1.43 1.37 1.39 1.43 1.33 1.46 1.45 1.68 1.69 1.79 1.80 1.82 1.79 1.76 1.59 1.54 1.53 1.49 1.52 1.70 1.67 1.51 1.56 1.60 1.62 1.57 1.69 1.79 1.78 1.74
1.10 0.91 1.00 1.21 1.22 1.23 1.43 1.49 1.55 1.52 1.45 1.40 1.31 1.42 1.57 1.60 1.53 1.41 1.26 1.20 1.20 1.25 1.31 1.31 1.35 1.39 1.60 1.74 1.81 1.84 1.74 1.66 1.58 1.49 1.51 1.57 1.57 1.59 1.71 1.78 1.62 1.64 1.67 1.59 1.56 1.59 1.64 1.73 1.82
1.05 0.93 1.19 1.22 1.29 1.41 1.41 1.43 1.57 1.45 1.30 1.33 1.19 1.27 1.42 1.45 1.42 1.32 1.24 1.20 1.15 1.23 1.27 1.31 1.32 1.49 1.58 1.71 1.73 1.68 1.56 1.48 1.46 1.48 1.52 1.55 1.74 1.75 1.76 1.78 1.71 1.64 1.66 1.66 1.59 1.48 1.52 1.61 1.62
0.86 1.27 1.27 1.30 1.29 1.35 1.36 1.45 1.39 1.42 1.37 1.44 1.34 1.37 1.38 1.35 1.34 1.26 1.18 1.17 1.14 1.15 1.20 1.28 1.36 1.48 1.62 1.71 1.62 1.52 1.52 1.57 1.53 1.50 1.49 1.59 1.71 1.69 1.68 1.73 1.70 1.63 1.76 1.64 1.59 1.52 1.38 1.32 1.42
0.85 1.25 1.32 1.41 1.38 1.41 1.43 1.32 1.31 1.29 1.40 1.42 1.37 1.36 1.31 1.29 1.32 1.31 1.24 1.20 1.17 1.07 1.14 1.24 1.39 1.44 1.57 1.59 1.56 1.55 1.64 1.65 1.57 1.56 1.67 1.72 1.73 1.80 1.75 1.72 1.69 1.73 1.84 1.68 1.57 1.46 1.35 1.33 1.31
0.79 1.02 1.27 1.36 1.35 1.37 1.24 1.21 1.23 1.24 1.34 1.32 1.33 1.29 1.25 1.23 1.26 1.26 1.20 1.10 1.08 1.06 1.07 1.25 1.36 1.40 1.52 1.51 1.59 1.59 1.61 1.61 1.64 1.72 1.74 1.82 1.89 1.88 1.82 1.82 1.69 1.76 1.81 1.74 1.66 1.42 1.33 1.28 1.27
0.70 0.77 0.92 1.12 1.18 1.21 1.25 1.07 1.00 1.23 1.26 1.22 1.26 1.25 1.22 1.19 1.23 1.23 1.22 1.11 1.07 1.02 1.09 1.19 1.31 1.38 1.44 1.47 1.57 1.61 1.64 1.63 1.63 1.74 1.74 1.81 1.85 1.84 1.82 1.84 1.83 1.70 1.76 1.70 1.62 1.46 1.35 1.28 1.27
0.44 0.59 0.62 1.00 1.12 1.15 1.10 0.83 1.01 1.25 1.22 1.08 1.15 1.15 1.15 1.11 1.15 1.26 1.26 1.17 1.16 1.07 1.05 1.19 1.28 1.30 1.34 1.38 1.52 1.61 1.68 1.64 1.65 1.74 1.81 1.81 1.85 1.84 1.80 1.76 1.75 1.72 1.72 1.67 1.57 1.38 1.28 1.32 1.22
0.44 0.39 0.53 0.79 1.08 1.06 1.01 0.86 1.07 1.25 1.22 1.09 1.05 1.03 1.06 1.07 1.13 1.22 1.28 1.23 1.17 1.13 1.05 1.12 1.21 1.20 1.22 1.27 1.40 1.55 1.62 1.67 1.70 1.75 1.79 1.80 1.82 1.86 1.84 1.79 1.77 1.76 1.68 1.66 1.60 1.40 1.33 1.32 1.21
0.32 0.44 0.52 0.64 0.92 0.99 0.90 0.88 1.09 1.21 1.19 1.13 1.11 1.02 0.97 1.02 1.05 1.21 1.28 1.28 1.26 1.18 1.15 1.11 1.17 1.19 1.21 1.23 1.34 1.46 1.47 1.55 1.63 1.65 1.69 1.73 1.78 1.79 1.87 1.81 1.80 1.79 1.62 1.60 1.57 1.32 1.30 1.30 1.26
0.35 0.47 0.47 0.71 0.90 0.91 0.88 0.87 0.99 1.15 1.19 1.13 1.12 1.11 0.96 0.95 1.13 1.25 1.31 1.31 1.28 1.24 1.14 1.11 1.09 1.14 1.16 1.11 1.14 1.22 1.24 1.35 1.49 1.60 1.62 1.68 1.70 1.71 1.74 1.72 1.74 1.74 1.57 1.53 1.51 1.35 1.24 1.21 1.24
0.18 0.37 0.46 0.66 0.80 0.85 0.87 0.82 0.98 1.09 1.12 1.15 1.11 1.14 1.12 1.01 1.10 1.15 1.26 1.27 1.27 1.22 1.15 1.09 1.07 1.09 1.12 1.13 1.19 1.24 1.27 1.35 1.51 1.61 1.64 1.62 1.63 1.66 1.74 1.69 1.72 1.66 1.61 1.53 1.49 1.42 1.25 1.26 1.25
0.17 0.19 0.39 0.51 0.66 0.80 0.78 0.73 0.80 1.06 1.15 1.22 1.23 1.25 1.27 1.18 1.13 1.15 1.13 1.24 1.27 1.23 1.18 1.14 1.03 1.04 1.07 1.13 1.18 1.21 1.30 1.35 1.42 1.50 1.53 1.57 1.61 1.65 1.73 1.73 1.69 1.58 1.68 1.55 1.48 1.40 1.27 1.17 1.27
0.19 0.18 0.23 0.45 0.52 0.52 0.74 0.48 0.72 0.85 0.95 1.05 1.09 1.15 1.25 1.31 1.23 1.20 1.12 1.14 1.22 1.23 1.28 1.23 1.13 1.08 1.10 1.11 1.10 1.04 1.08 1.13 1.27 1.35 1.48 1.47 1.57 1.61 1.68 1.72 1.72 1.66 1.60 1.58 1.52 1.44 1.30 1.28 1.20
0.29 0.26 0.18 0.21 0.44 0.49 0.53 0.50 0.58 0.84 0.84 0.89 0.95 1.06 1.19 1.34 1.37 1.25 1.19 1.08 1.21 1.29 1.28 1.31 1.27 1.15 1.20 1.14 1.13 1.13 1.15 1.26 1.33 1.33 1.39 1.41 1.46 1.54 1.60 1.62 1.64 1.65 1.63 1.62 1.57 1.53 1.42 1.36 1.28
0.44 0.33 0.27 0.21 0.19 0.28 0.42 0.48 0.43 0.61 0.78 0.84 0.91 1.03 1.15 1.27 1.38 1.44 1.35 1.20 1.13 1.28 1.33 1.33 1.25 1.17 1.24 1.20 1.23 1.24 1.22 1.25 1.27 1.27 1.24 1.29 1.34 1.39 1.48 1.52 1.55 1.59 1.59 1.56 1.56 1.65 1.53 1.44 1.38
0.41 0.39 0.25 0.18 0.15 0.11 0.29 0.41 0.42 0.59 0.75 0.81 0.82 0.92 1.09 1.25 1.33 1.41 1.38 1.25 1.05 1.09 1.20 1.29 1.27 1.20 1.25 1.19 1.26 1.30 1.30 1.29 1.22 1.20 1.19 1.20 1.20 1.22 1.28 1.40 1.43 1.49 1.54 1.54 1.57 1.60 1.62 1.52 1.41
0.37 0.38 0.29 0.18 0.14 0.12 0.18 0.27 0.37 0.57 0.64 0.80 0.87 0.93 1.14 1.24 1.31 1.38 1.43 1.38 1.15 1.00 1.09 1.16 1.19 1.15 1.18 1.18 1.20 1.29 1.31 1.29 1.24 1.22 1.21 1.19 1.16 1.16 1.23 1.21 1.32 1.41 1.49 1.50 1.52 1.55 1.59 1.60 1.53
0.35 0.34 0.41 0.32 0.29 0.19 0.16 0.20 0.39 0.52 0.60 0.70 0.78 0.94 1.00 1.13 1.20 1.28 1.43 1.42 1.34 1.15 1.01 1.09 1.14 1.15 1.14 1.12 1.20 1.25 1.30 1.28 1.20 1.20 1.24 1.24 1.22 1.18 1.17 1.17 1.25 1.33 1.41 1.47 1.49 1.45 1.52 1.56 1.53
0.38 0.40 0.38 0.39 0.23 0.17 0.21 0.18 0.16 0.27 0.43 0.55 0.69 0.83 0.94 1.03 1.13 1.21 1.35 1.39 1.36 1.34 1.22 1.11 1.18 1.17 1.19 1.21 1.24 1.28 1.28 1.28 1.26 1.26 1.19 1.19 1.22 1.22 1.12 1.16 1.24 1.32 1.35 1.42 1.46 1.45 1.49 1.53 1.54
0.33 0.38 0.42 0.43 0.36 0.22 0.18 0.21 0.27 0.22 0.28 0.45 0.62 0.77 0.88 0.91 0.99 1.07 1.20 1.28 1.27 1.35 1.37 1.29 1.20 1.18 1.22 1.26 1.29 1.28 1.26 1.24 1.28 1.27 1.23 1.21 1.23 1.23 1.18 1.15 1.17 1.25 1.26 1.31 1.36 1.40 1.44 1.44 1.46
0.32 0.38 0.39 0.36 0.35 0.36 0.31 0.24 0.34 0.31 0.26 0.32 0.48 0.71 0.79 0.89 0.93 0.98 1.07 1.24 1.30 1.27 1.30 1.30 1.30 1.25 1.22 1.25 1.25 1.23 1.24 1.25 1.23 1.23 1.25 1.28 1.20 1.27 1.23 1.22 1.13 1.20 1.22 1.26 1.26 1.29 1.36 1.38 1.35
Wind_Speed
9 9 7 4 3 5 4 4 4 6 9 6 12 7 8 5 4 4 14 17 19 18 17 16 15 14 13 13 13 14 14 14 13 13 13 12 12 12 11 10 10 8 7 6 6 5 5 6 6
9 8 4 2 1 3 5 4 5 8 10 10 10 8 6 5 5 7 18 19 20 18 17 16 15 14 13 13 14 14 14 14 13 13 13 12 12 11 11 10 9 9 8 7 6 6 6 7 7
8 5 0 1 2 1 3 6 6 9 9 12 8 6 5 5 6 13 18 20 20 18 17 16 15 14 14 14 14 15 14 14 13 13 13 12 12 11 11 11 10 9 8 8 8 8 8 9 9
5 3 2 1 1 2 3 7 9 11 8 9 8 7 4 3 10 14 21 20 19 18 17 16 15 14 14 14 15 15 14 14 13 13 13 12 12 12 12 11 11 11 11 11 11 11 12 12 11
5 3 2 1 1 2 3 8 8 9 8 10 8 5 4 6 10 20 20 20 19 18 16 16 15 14 15 15 15 15 14 14 13 13 13 13 13 13 12 11 11 12 13 13 13 13 13 13 12
5 3 1 2 2 2 5 5 8 8 9 9 8 7 4 8 16 20 20 20 19 18 16 16 15 15 15 15 15 15 14 14 14 14 14 14 14 13 12 11 12 13 13 13 14 14 14 14 13
5 4 3 2 4 4 5 6 8 9 9 8 9 6 6 13 20 20 20 19 18 17 16 15 15 15 15 15 15 15 15 15 15 15 14 14 13 12 11 12 13 14 14 13 14 14 14 14 14
6 5 4 3 5 5 5 6 7 7 7 8 9 6 9 18 20 19 20 19 18 17 16 16 16 15 15 15 15 15 15 15 15 14 14 13 12 12 12 13 13 13 13 13 13 13 13 13 13
8 6 5 5 6 6 8 6 8 5 7 5 8 6 15 22 21 20 20 19 18 17 17 17 16 16 16 16 16 15 15 15 14 14 13 12 11 11 11 11 12 12 12 12 12 12 12 12 13
10 8 7 6 6 6 9 8 9 6 9 6 7 10 19 21 21 20 20 20 19 19 18 17 17 17 16 16 16 15 15 14 13 13 12 11 10 10 9 9 9 10 10 10 11 11 10 10 10
10 9 8 6 8 6 9 9 8 8 8 8 11 14 20 21 21 20 20 20 19 19 19 19 18 17 17 17 16 15 14 14 13 12 11 10 10 9 8 8 8 8 8 8 8 9 8 8 7
11 11 10 5 8 8 9 9 5 8 6 9 12 15 20 21 21 21 21 21 20 20 20 20 19 18 18 17 16 15 14 13 12 11 10 9 8 8 8 7 7 7 6 6 6 7 7 7 7
16 11 10 10 8 8 7 7 6 8 7 9 13 16 20 22 21 21 21 21 21 21 21 21 20 19 18 16 15 15 14 13 12 11 10 9 8 7 7 6 6 6 6 6 5 6 6 6 7
14 19 14 11 10 9 9 8 7 7 10 12 13 17 20 22 22 22 22 22 22 22 22 22 21 20 18 17 15 14 13 13 12 11 10 8 8 7 6 6 5 5 5 6 6 6 7 7 8
18 11 13 16 14 10 8 8 10 11 11 12 14 17 20 22 23 23 22 22 23 22 22 22 22 21 19 17 15 15 14 13 12 10 10 8 8 7 7 6 5 5 6 7 8 8 8 8 8
17 16 13 15 17 13 12 9 11 12 12 12 14 17 20 22 23 23 23 23 23 23 23 23 22 21 20 17 16 15 14 13 12 10 9 8 8 7 7 7 7 7 8 8 8 8 8 8 8
17 16 19 16 17 14 15 10 12 13 13 13 14 17 19 21 23 23 24 23 24 24 24 24 24 22 21 18 17 16 14 13 11 10 8 7 7 7 7 7 7 8 8 8 8 8 8 8 9
21 21 17 20 18 19 17 16 13 14 14 14 15 16 19 22 23 24 24 24 24 25 25 25 25 23 21 20 18 17 15 13 11 9 8 7 7 7 6 7 7 8 8 9 8 8 8 7 8
19 20 22 19 19 20 21 19 18 17 16 15 16 17 18 21 23 24 24 25 25 26 26 26 26 24 23 21 20 18 16 14 12 10 9 8 7 7 7 7 8 8 8 8 8 8 9 8 8
28 23 21 21 19 21 20 23 20 21 21 20 18 19 19 20 21 24 26 27 26 27 28 28 27 26 25 23 21 18 17 15 13 11 10 9 8 8 8 7 7 7 7 8 7 7 7 7 7
28 29 26 21 18 24 20 24 23 23 23 21 20 20 20 21 21 22 25 28 28 28 29 29 28 28 26 24 23 20 18 16 15 13 11 9 9 8 7 6 6 6 6 6 6 7 7 7 7
30 28 29 27 22 23 26 25 27 26 26 25 23 22 23 23 22 22 24 28 30 29 29 30 30 29 28 27 24 23 20 19 17 15 13 11 10 9 8 6 5 4 5 5 6 6 7 7 7
29 25 29 31 31 27 28 24 29 24 28 27 25 24 25 25 25 24 24 26 30 30 30 31 31 31 29 28 27 25 22 20 18 16 15 13 11 10 8 7 6 4 4 4 5 5 6 6 6
22 27 26 28 31 35 36 29 30 31 29 27 26 25 26 26 27 26 24 24 29 31 32 32 32 32 31 30 29 27 25 22 20 18 17 15 13 12 10 8 7 6 4 5 5 5 5 5 4
32 27 23 25 28 34 33 34 34 29 31 29 27 27 27 27 28 27 25 25 27 31 33 32 33 33 32 32 30 29 27 24 22 20 18 17 15 14 12 11 9 7 7 6 6 5 4 4 4
34 35 27 28 28 29 32 32 32 37 28 30 29 27 27 28 28 28 28 26 26 29 33 34 33 33 33 33 32 30 28 26 24 22 20 18 17 16 15 13 12 11 9 8 8 7 6 5 4
34 38 37 29 23 27 31 36 29 29 33 36 29 29 28 29 28 28 29 29 27 28 32 35 33 33 34 34 33 32 30 28 25 24 22 20 18 16 16 15 13 12 12 11 10 9 8 7 5
36 33 35 34 33 34 25 33 30 36 32 32 35 31 28 29 28 28 28 29 30 30 31 34 35 34 34 34 34 32 31 30 27 25 24 23 20 18 17 16 15 14 13 13 12 11 11 9 8
35 37 37 37 38 29 32 25 27 32 35 35 33 33 31 29 28 27 28 29 30 31 32 33 35 35 35 34 34 33 32 31 29 27 26 24 23 21 19 18 17 15 14 14 14 13 13 12 11
34 35 43 38 41 39 32 31 18 25 30 36 37 33 33 32 31 28 29 30 31 31 32 32 34 36 36 35 34 34 33 32 30 29 27 26 25 23 21 19 18 17 16 15 15 15 15 14 14
Wind_Direction
142 141 144 153 202 224 221 200 165 144 159 152 146 139 149 109 115 110 146 148 147 145 142 139 136 131 128 126 126 125 125 124 123 122 119 117 115 112 110 105 100 94 89 83 77 81 94 102 106
148 143 138 147 258 217 205 199 175 161 153 148 142 128 135 136 128 122 148 149 148 146 143 141 138 133 130 128 127 127 126 124 122 122 119 117 115 112 107 101 94 87 78 74 73 81 97 105 110
157 164 114 57 171 185 190 196 190 159 161 158 150 142 133 136 146 143 152 150 148 147 144 142 139 135 132 131 130 128 127 125 122 121 120 117 114 111 105 99 88 79 74 76 75 86 96 104 106
172 195 264 154 131 139 160 172 165 163 160 167 155 146 151 153 153 156 153 152 150 148 146 143 140 136 134 133 132 131 129 126 124 121 120 116 113 109 104 95 84 76 78 79 82 89 97 101 100
192 215 252 231 182 125 150 162 177 171 170 168 170 156 140 144 150 152 153 153 151 149 147 145 143 138 137 135 133 132 130 127 125 122 120 117 113 108 102 92 83 79 83 82 85 91 95 95 96
202 221 232 238 200 179 158 165 181 163 163 165 166 162 163 161 154 155 155 155 154 152 149 147 144 141 139 137 135 133 131 128 125 122 119 116 113 107 99 92 86 84 87 85 88 91 93 93 95
221 219 240 262 205 193 182 175 181 164 165 174 162 163 167 160 157 156 156 156 156 155 151 149 146 143 141 139 136 134 131 128 126 122 119 116 112 105 98 93 91 90 86 88 90 92 91 91 94
221 221 230 214 197 178 165 169 187 182 162 152 167 169 169 163 159 158 158 159 159 158 155 152 148 146 143 140 137 135 132 130 127 124 120 116 111 105 100 95 94 90 87 88 91 92 92 91 96
213 222 229 222 203 196 187 183 161 158 165 170 174 167 160 160 160 159 161 162 162 162 159 155 151 148 145 142 140 137 134 132 129 126 120 116 111 106 103 97 95 92 88 87 90 93 93 93 94
219 225 226 222 218 206 189 180 170 173 168 153 148 147 158 161 164 164 165 165 166 164 162 158 155 152 149 145 142 139 137 135 133 130 125 116 111 109 107 102 94 94 90 88 89 92 94 96 99
220 225 225 233 202 183 176 171 179 170 185 183 172 161 165 166 169 169 168 169 167 166 164 162 158 155 151 148 144 142 140 137 135 133 127 119 111 107 108 107 97 98 91 92 89 92 91 94 103
225 225 211 200 189 178 184 175 183 185 182 181 174 172 170 172 173 173 172 171 169 168 167 165 162 158 155 152 149 145 141 140 135 133 130 124 114 109 106 110 100 96 96 89 94 96 93 88 97
220 218 209 211 208 209 211 213 204 199 186 167 167 172 176 175 175 175 174 172 171 171 170 168 165 162 160 156 153 150 147 142 138 135 129 123 119 111 111 107 103 100 98 90 96 106 98 87 98
221 224 222 218 213 214 226 229 196 180 171 171 168 174 177 178 178 177 177 176 175 173 172 171 169 167 164 160 157 155 152 148 143 136 130 122 117 113 110 105 98 107 109 93 94 107 106 100 96
224 228 224 219 217 212 207 209 194 171 170 174 179 178 179 181 182 182 180 178 177 176 175 174 173 171 168 166 161 159 153 150 146 137 132 124 118 110 102 92 91 103 114 107 105 105 108 108 96
219 220 220 206 207 211 203 197 183 179 178 176 180 181 182 184 185 185 184 182 181 180 179 178 177 176 174 171 168 164 159 154 150 142 133 125 121 113 99 89 92 103 115 113 108 105 114 113 104
217 217 214 216 204 206 205 203 191 191 187 182 184 185 186 186 188 188 187 186 185 184 183 182 182 181 180 178 175 171 166 162 157 150 142 133 127 119 107 94 95 104 114 117 109 114 115 112 111
218 219 217 215 208 211 210 218 199 198 194 189 188 187 189 191 191 190 190 189 189 189 188 187 186 185 184 182 180 178 175 172 169 164 156 145 134 128 118 105 99 105 110 118 109 109 118 120 121
224 226 224 216 216 215 220 221 211 203 200 196 193 190 191 194 194 194 193 193 192 193 191 191 190 189 187 186 185 184 182 180 177 171 162 152 142 132 125 117 107 105 109 115 114 110 110 118 120
228 230 228 224 223 221 218 222 220 211 207 205 200 197 194 192 194 197 198 197 196 196 195 194 194 193 192 190 189 188 187 186 182 178 172 163 156 144 131 124 117 110 109 114 116 119 118 117 123
227 228 226 226 232 227 226 230 222 218 216 212 213 210 206 203 199 199 200 200 199 198 197 196 196 196 196 195 194 194 193 191 189 184 179 174 172 162 151 139 128 120 113 117 111 120 129 123 126
229 227 228 230 233 226 224 232 223 220 216 214 214 211 210 208 207 204 203 203 203 202 200 200 199 198 199 199 198 198 197 195 195 192 189 183 179 177 173 166 155 141 132 124 119 123 128 128 127
230 226 226 228 232 237 228 229 226 217 217 215 216 216 214 212 209 208 207 205 205 203 203 202 202 202 201 201 201 200 200 200 200 200 199 197 193 192 187 186 181 167 156 148 141 133 138 135 133
220 225 227 226 228 232 227 229 226 219 215 217 218 217 215 213 212 212 210 208 207 206 204 203 203 203 204 203 203 202 203 203 204 204 205 204 204 203 202 198 195 189 178 171 164 157 150 154 147
221 218 218 221 222 230 224 229 225 222 220 221 219 218 217 214 212 211 209 209 207 206 205 204 204 205 205 205 205 205 207 208 209 209 209 210 211 211 211 209 206 205 201 194 186 178 171 168 170
220 216 218 220 226 230 222 230 222 224 223 221 221 219 214 212 212 213 212 210 207 206 206 205 205 206 206 206 207 209 210 211 212 213 213 214 216 218 217 217 216 214 211 206 203 201 197 190 186
217 219 221 234 230 235 229 232 234 222 222 221 219 215 212 212 213 215 214 212 209 208 206 205 205 206 206 207 209 210 212 212 214 215 217 218 219 219 219 217 218 217 217 215 214 214 212 208 209
224 221 217 222 229 229 226 228 228 218 220 217 215 214 213 213 215 216 215 214 213 210 207 206 207 207 208 208 209 211 212 214 215 217 218 219 219 220 219 219 219 220 222 222 222 222 219 219 220
222 222 221 224 226 227 232 231 226 224 217 217 216 217 215 213 214 215 216 215 213 211 209 209 209 209 209 210 210 211 213 215 216 218 219 219 220 221 221 221 222 224 226 227 227 227 225 225 226
235 228 226 224 223 227 236 229 219 221 217 217 218 219 217 219 218 220 218 215 213 211 210 210 211 211 211 212 212 213 214 215 217 219 220 220 220 222 223 224 225 226 228 229 229 229 227 229 230